カタログに戻る

CINEMA

運用中科学VLEO
NORAD 38764·PAYLOAD·🇺🇸 United States

打ち上げ Sep 13, 2012 から Vandenberg Space Force Base

Loading…

次のパス (今後24時間)

TLE

最新Source: Space-Track

元期: Sep 14, 2026, 09:11 UTC

1 38764U 12048G   26257.38272494  .00030584  00000-0  47032-3 0  9993
2 38764  64.6397 139.9717 0024992 146.0846 214.1901 15.53754576131075

AllMySatでCINEMAをリアルタイム追跡

Download on the App Store